ONEWEB-0698, 61604

Orbit data source: Space-Track

ONEWEB-0698, 61604 is a payload satellite owned by Eut. One Web (UK) in LEO that was launched on Sun, 20 Oct 2024 UTC via an FALCON 9 launch vehicle from the Air Force Western Test Range (AFWTR). Payload-class satellites include a variety of spacecraft equipped with specific instruments for various scientific and technological missions. These include communications satellites like Starlink; space stations such as the ISS; scientific satellites like the Hubble; Earth observation satellites from companies like Planet Labs, Umbra, and HawkEye 360; GPS; miniature CubeSats for education and research; and military/defense satellites.

Loading next visibility...
Identifier
61604, 2024-188L
Orbit
LEO
Country
Flag of UKUK
Related business
Manufacturer
One Web
Mission
Operational Commercial Communications
Bus & Motor
ARROW, Unknown motor
Mass
148 kg wet, ~140 kg dry
Launch date (UTC)
2024-10-20 (2 years ago)
Launch vehicle
FALCON 9
Launch site
Air Force Western Test Range (AFWTR)
Object type
Payload
Rocket body
Debris
Shape & HBR
Trap Box + 2 Pan, 6.7 m
Radar Cross Section
3.464 m², Large (>1 m²)

Expand to show TLE details & history
Last TLE update: 7 hours ago

TLE from 7 hours ago
0 ONEWEB-0698
1 61604U 24188L   26208.41103300 -.00000486  00000-0 -14078-2 0  9992
2 61604  87.8892  13.0707 0002819 107.3765 252.7671 13.11415778 89744
Epoch: 2026-07-27T09:51Z
TLE epoch observation values (Epoch: 2026-07-27T09:51:53.251Z)
Latitude
-0.00005°
Longitude
-79.99618°
Altitude
1,221.211 km
Speed
7.243 km/s
True Right ascension
00h 52m 16s
True Declination
0° 00' 00"
Sunlit
Object was in daylight at epoch
Visualization orbit readout
Latitude
Unknown
Longitude
Unknown
Altitude
Unknown
Speed
Unknown
Apparent Right ascension
Unknown
Apparent Declination
Unknown
Sunlit
N/A
Visualization observer readout
Local Sidereal Time
06:23:53
Azimuth
Unknown
Elevation
Unknown
Doppler factor
Unknown
Orbital elements
Apogee altitude
1,216.946 km
Perigee altitude
1,212.665 km
Semi-major axis
7,592.942 km
Eccentricity
0.00028
Inclination
87.8892°
RAAN
13.0707°
Arg. of periapsis
107.3765°
True anomaly
252.73625°
Mean anomaly
252.7671°
Eccentric anomaly
252.75167°
Mean motion
3.28041 °/min
Orbital period
109.74 mins
BSTAR
-0.0014078
Loading maneuver chart data...
Computing Atmospheric mass density...
Loading historical data...
Loading historical data...
Loading historical data...
Loading historical data...
Loading historical data...
Loading historical data...
Loading historical data...

Documentation

Showing up to 5 results
|